Date String (YYYY-MM-DD hh:mm:ss) UTC,Instrument flags,absolute air pressure of the measurement (hPa),sample flow rate (lpm),inlet stack bypass flow (lpm),air temperature of the measurement (°C),ambient temperature measured by the external sensor (°C),aerosol sample conditioner tube jacket temperature (°C),OPC LED temperature (°C),internal box temperature (°C),relative humidity of the measurement (%),span deviation,mass concentration of particles derived from Lorenz-Mie calculation of OPC scattering (μg/m³),mass concentration of particles derived from Lorenz-Mie calculation of OPC scattering (μg/m³),mass concentration of particles derived from Lorenz-Mie calculation of OPC scattering (μg/m³)
DateTimeUTC,F1_M11,P_M11,Q1_M11,Q2_M11,T1_M11,T2_M11,T3_M11,T4_M11,T5_M11,U1_M11,ZSPAN_M11,X0_M11,X2_M11,X1_M11
2023-07-06 14:00:00,SystemResetWarning,0833.7,5.00,000.00,031.0,028.9,000.0,039.4,031.9,34.1,-001.4,0012.61,0007.99,0007.57
2023-07-06 14:01:00,SystemResetWarning,0833.7,5.00,000.00,031.0,028.9,000.0,039.4,031.9,34.2,-001.4,0012.49,0007.98,0007.59
2023-07-06 14:02:00,SystemResetWarning,0833.7,4.99,000.00,031.0,028.9,000.0,039.4,031.9,34.0,-001.4,0012.26,0007.97,0007.58
2023-07-06 14:03:00,SystemResetWarning,0833.7,5.00,000.00,031.0,028.9,000.0,039.4,031.9,33.5,-001.3,0012.22,0007.95,0007.57
2023-07-06 14:04:00,SystemResetWarning,0833.6,5.00,000.00,031.0,029.0,000.0,039.4,031.9,33.3,-001.4,0012.24,0007.96,0007.56
2023-07-06 14:05:00,SystemResetWarning,0833.6,5.00,000.00,031.0,029.0,000.0,039.4,031.9,33.4,-001.6,0012.38,0008.00,0007.57
2023-07-06 14:06:00,SystemResetWarning,0833.6,5.01,000.00,031.0,029.0,000.0,039.4,031.9,33.4,-001.7,0012.18,0008.03,0007.57
2023-07-06 14:07:00,SystemResetWarning,0833.6,5.01,000.00,031.0,029.0,000.0,039.4,032.0,33.1,-001.8,0011.89,0008.07,0007.59
2023-07-06 14:08:00,SystemResetWarning,0833.6,5.00,000.00,031.0,029.0,000.0,039.4,032.0,33.2,-001.8,0011.62,0008.03,0007.57
2023-07-06 14:09:00,SystemResetWarning,0833.6,4.99,000.00,031.0,028.6,000.0,039.4,032.0,33.3,-002.0,0011.53,0008.01,0007.56
2023-07-06 14:10:00,SystemResetWarning,0833.5,5.00,000.00,030.9,026.7,000.0,039.2,031.9,33.4,-001.9,0011.83,0008.00,0007.56
2023-07-06 14:11:00,SystemResetWarning,0833.5,5.00,000.00,030.8,025.8,000.0,039.1,031.6,33.2,-001.9,0011.85,0007.99,0007.55
2023-07-06 14:12:00,SystemResetWarning,0833.4,5.01,000.00,030.7,025.8,000.0,039.1,031.3,33.1,-002.2,0011.83,0007.99,0007.55
2023-07-06 14:13:00,SystemResetWarning,0833.4,5.01,000.00,030.6,026.1,000.0,039.1,031.2,33.3,-002.4,0011.80,0007.97,0007.54
2023-07-06 14:14:00,SystemResetWarning,0833.4,5.00,000.00,030.5,026.5,000.0,039.1,031.3,33.3,-002.6,0011.83,0007.97,0007.52
2023-07-06 14:15:00,SystemResetWarning,0833.4,5.00,000.00,030.4,026.9,000.0,039.1,031.3,32.9,-002.6,0011.79,0007.98,0007.52
2023-07-06 14:16:00,SystemResetWarning,0833.4,5.00,000.00,030.4,027.2,000.0,039.1,031.4,32.8,-002.7,0011.68,0007.95,0007.52
2023-07-06 14:17:00,SystemResetWarning,0833.4,4.99,000.00,030.4,027.5,000.0,039.0,031.4,33.0,-002.7,0011.62,0007.92,0007.51
2023-07-06 14:18:00,SystemResetWarning,0833.4,4.99,000.00,030.4,027.7,000.0,039.0,031.4,32.7,-002.8,0011.57,0007.89,0007.50
2023-07-06 14:19:00,SystemResetWarning,0833.4,5.00,000.00,030.3,027.9,000.0,039.0,031.4,32.7,-002.8,0011.79,0007.94,0007.53
2023-07-06 14:20:00,SystemResetWarning,0833.5,5.01,000.00,030.3,028.1,000.0,039.0,031.4,32.9,-002.6,0011.87,0007.98,0007.56
2023-07-06 14:21:00,SystemResetWarning,0833.6,5.00,000.00,030.3,028.2,000.0,039.0,031.5,32.6,-002.8,0011.67,0008.03,0007.58
2023-07-06 14:22:00,SystemResetWarning,0833.6,5.01,000.00,030.3,028.3,000.0,038.9,031.5,32.6,-002.7,0011.68,0008.05,0007.60
2023-07-06 14:23:00,SystemResetWarning,0833.7,5.00,000.00,030.3,028.4,000.0,038.9,031.5,32.6,-002.7,0011.80,0008.10,0007.61
2023-07-06 14:24:00,SystemResetWarning,0833.7,4.99,000.00,030.3,028.4,000.0,038.9,031.6,32.6,-002.6,0011.90,0008.16,0007.63
2023-07-06 14:25:00,SystemResetWarning,0833.7,5.00,000.00,030.3,028.5,000.0,038.9,031.6,32.4,-002.5,0012.02,0008.19,0007.66
2023-07-06 14:26:00,SystemResetWarning,0833.7,5.00,000.00,030.3,028.6,000.0,038.9,031.6,32.9,-002.6,0012.14,0008.17,0007.66
2023-07-06 14:27:00,SystemResetWarning,0833.7,4.99,000.00,030.4,028.6,000.0,038.9,031.6,33.4,-002.7,0012.10,0008.17,0007.66
2023-07-06 14:28:00,SystemResetWarning,0833.7,5.00,000.00,030.4,028.7,000.0,038.9,031.6,32.8,-002.6,0012.05,0008.17,0007.67
2023-07-06 14:29:00,SystemResetWarning,0833.7,5.00,000.00,030.4,028.7,000.0,038.9,031.7,33.4,-002.6,0012.06,0008.18,0007.67
2023-07-06 14:30:00,SystemResetWarning,0833.7,5.00,000.00,030.4,028.8,000.0,038.9,031.7,33.3,-002.6,0011.95,0008.16,0007.66
2023-07-06 14:31:00,SystemResetWarning,0833.7,5.00,000.00,030.4,028.8,000.0,038.9,031.7,33.6,-002.7,0012.01,0008.16,0007.64
2023-07-06 14:32:00,SystemResetWarning,0833.7,5.01,000.00,030.4,028.8,000.0,038.9,031.7,33.7,-002.7,0011.93,0008.11,0007.62
2023-07-06 14:33:00,SystemResetWarning,0833.6,5.01,000.00,030.4,028.8,000.0,038.9,031.7,33.4,-002.7,0011.82,0008.08,0007.62
2023-07-06 14:34:00,SystemResetWarning,0833.7,5.00,000.00,030.4,028.9,000.0,038.9,031.7,33.8,-002.5,0011.70,0008.04,0007.61
2023-07-06 14:35:00,SystemResetWarning,0833.7,4.99,000.00,030.4,028.9,000.0,038.9,031.8,34.8,-002.4,0011.59,0007.98,0007.59
2023-07-06 14:36:00,SystemResetWarning,0833.6,5.03,000.00,030.5,028.9,000.0,038.9,031.8,35.0,-002.4,0011.53,0007.97,0007.57
2023-07-06 14:37:00,SystemResetWarning,0833.7,4.96,000.00,030.6,028.9,000.0,038.9,031.9,34.5,-002.2,0011.37,0007.97,0007.58
2023-07-06 14:38:00,SystemResetWarning,0833.7,5.02,000.00,030.7,029.0,000.0,039.0,031.9,34.4,-002.0,0011.49,0008.01,0007.60
2023-07-06 14:39:00,SystemResetWarning,0833.7,4.99,000.00,030.8,028.4,000.0,038.9,031.9,34.2,-002.3,0011.73,0008.10,0007.67
2023-07-06 14:40:00,SystemResetWarning,0833.7,5.00,000.00,030.8,026.5,000.0,038.8,031.8,34.3,-002.2,0011.92,0008.22,0007.77
2023-07-06 14:41:00,SystemResetWarning,0833.7,5.01,000.00,030.7,025.8,000.0,038.7,031.5,34.3,-002.1,0012.01,0008.29,0007.84
2023-07-06 14:42:00,SystemResetWarning,0833.7,5.01,000.00,030.6,025.9,000.0,038.8,031.2,34.4,-002.1,0012.05,0008.36,0007.90
2023-07-06 14:43:00,SystemResetWarning,0833.7,4.97,000.00,030.5,026.2,000.0,038.8,031.2,35.1,-002.2,0012.18,0008.48,0008.00
2023-07-06 14:44:00,SystemResetWarning,0833.7,5.03,000.00,030.5,026.6,000.0,038.8,031.3,34.7,-002.2,0012.35,0008.58,0008.07
2023-07-06 14:45:00,SystemResetWarning,0833.7,4.97,000.00,030.7,026.9,000.0,038.8,031.4,33.6,-002.2,0012.47,0008.66,0008.15
2023-07-06 14:46:00,SystemResetWarning,0833.8,5.02,000.00,030.7,027.3,000.0,038.9,031.4,33.4,-002.2,0012.55,0008.73,0008.24
2023-07-06 14:47:00,SystemResetWarning,0833.7,4.99,000.00,030.7,027.6,000.0,038.9,031.5,33.2,-002.1,0012.62,0008.80,0008.33
2023-07-06 14:48:00,SystemResetWarning,0833.7,5.00,000.00,030.8,027.8,000.0,038.9,031.5,33.0,-002.2,0012.64,0008.86,0008.40
2023-07-06 14:49:00,SystemResetWarning,0833.8,5.00,000.00,030.8,028.0,000.0,038.9,031.5,32.7,-002.1,0012.66,0008.86,0008.41
2023-07-06 14:50:00,SystemResetWarning,0833.8,5.00,000.00,030.8,028.1,000.0,039.0,031.5,32.7,-001.8,0012.61,0008.82,0008.36
2023-07-06 14:51:00,SystemResetWarning,0833.8,5.00,000.00,030.8,028.3,000.0,039.0,031.6,32.4,-001.7,0012.48,0008.75,0008.29
2023-07-06 14:52:00,SystemResetWarning,0833.8,5.00,000.00,030.8,028.4,000.0,039.0,031.6,32.5,-001.7,0012.41,0008.71,0008.26
2023-07-06 14:53:00,SystemResetWarning,0833.8,5.00,000.00,030.8,028.5,000.0,039.1,031.6,32.6,-001.7,0012.60,0008.70,0008.24
2023-07-06 14:54:00,SystemResetWarning,0833.7,5.00,000.00,030.8,028.5,000.0,039.1,031.7,33.0,-001.3,0012.45,0008.64,0008.22
2023-07-06 14:55:00,SystemResetWarning,0833.7,4.99,000.00,030.8,028.6,000.0,039.1,031.7,33.5,-001.3,0012.34,0008.58,0008.18
2023-07-06 14:56:00,SystemResetWarning,0833.7,4.99,000.00,030.8,028.7,000.0,039.1,031.7,33.5,-001.5,0012.32,0008.56,0008.15
2023-07-06 14:57:00,SystemResetWarning,0833.7,5.00,000.00,030.8,028.7,000.0,039.1,031.7,33.2,-001.4,0012.60,0008.54,0008.11
2023-07-06 14:58:00,SystemResetWarning,0833.7,5.01,000.00,030.8,028.8,000.0,039.1,031.7,33.7,-001.5,0012.57,0008.51,0008.09
2023-07-06 14:59:00,SystemResetWarning,0833.7,5.01,000.00,030.8,028.8,000.0,039.1,031.8,33.6,-001.4,0012.66,0008.52,0008.08
